EW7701 Weather Reports


time (UTC)temp
F
wind
direction
speed
knots
gust
knots
rain 1hr
in
rain 24hr
in
rain mn
in
humidity
%
barometer
mb
20260502123019 40 58 1.7 2.6 0.00 0.00 0.00 72 1015.7
20260502122025 40 28 0.9 1.7 0.00 0.00 0.00 72 1015.8
20260502121033 40 0.0 0.0 0.00 0.00 0.00 70 1015.8
20260502115032 41 84 0.9 2.6 0.00 0.00 0.00 69 1015.8
20260502114033 41 63 1.7 2.6 0.00 0.00 0.00 70 1015.7
20260502113027 41 349 1.7 2.6 0.00 0.00 0.00 70 1015.9
20260502112022 41 10 1.7 2.6 0.00 0.00 0.00 70 1015.9
20260502111020 41 326 1.7 2.6 0.00 0.00 0.00 70 1015.9
20260502110019 41 57 0.9 2.6 0.00 0.00 0.00 69 1015.9
20260502105022 41 23 1.7 3.5 0.00 0.00 0.00 70 1015.9
20260502104022 41 51 1.7 2.6 0.00 0.00 0.00 71 1015.9
20260502103018 41 36 0.9 2.6 0.00 0.00 0.00 71 1015.8
20260502102020 41 234 0.0 1.7 0.00 0.00 0.00 70 1015.6
20260502101020 42 284 1.7 1.7 0.00 0.00 0.00 69 1015.6
20260502091028 42 0.0 0.0 0.00 0.00 0.00 69 1015.6
20260502071055 46 182 1.7 2.6 0.00 0.00 0.00 63 1015.9
20260502070019 46 44 1.7 2.6 0.00 0.00 0.00 63 1016.0
20260502065033 46 162 0.9 1.7 0.00 0.00 0.00 64 1016.0
20260502064033 47 54 2.6 3.5 0.00 0.00 0.00 63 1015.8
20260502063040 46 321 1.7 2.6 0.00 0.00 0.00 62 1016.2
20260502062018 47 196 1.7 1.7 0.00 0.00 0.00 62 1015.8
20260502061031 48 180 0.9 2.6 0.00 0.00 0.00 59 1015.8
20260502060041 49 75 1.7 2.6 0.00 0.00 0.00 58 1015.7
20260502055024 48 66 2.6 3.5 0.00 0.00 0.00 58 1015.8
20260502054023 48 9 1.7 1.7 0.00 0.00 0.00 58 1015.7
20260502053046 48 0.0 0.0 0.00 0.00 0.00 56 1015.6
20260502052023 48 0.0 0.0 0.00 0.00 0.00 55 1015.5
20260502051028 49 0.0 0.0 0.00 0.00 0.00 55 1015.6
20260502050020 51 135 0.0 1.7 0.00 0.00 0.00 53 1015.6
20260502045026 52 0.0 0.0 0.00 0.00 0.00 51 1015.7
20260502044052 53 96 0.9 2.6 0.00 0.00 0.00 48 1015.6
20260502043017 53 28 1.7 1.7 0.00 0.00 0.00 47 1015.4
20260502042018 54 18 1.7 2.6 0.00 0.00 0.00 45 1015.3
20260502041022 54 6 1.7 2.6 0.00 0.00 0.00 42 1015.3
20260502040017 55 19 1.7 3.5 0.00 0.00 0.00 42 1015.2
20260502035042 55 312 1.7 2.6 0.00 0.00 0.00 41 1015.1
20260502034031 56 334 2.6 3.5 0.00 0.00 0.00 40 1015.0
20260502033039 56 346 2.6 4.3 0.00 0.00 0.00 40 1014.8
20260502032030 57 18 2.6 3.5 0.00 0.00 0.00 40 1014.7
20260502031031 57 9 3.5 4.3 0.00 0.00 0.00 40 1014.6
20260502030022 58 11 2.6 3.5 0.00 0.00 0.00 40 1014.4
20260502025022 58 17 2.6 3.5 0.00 0.00 0.00 40 1014.3
20260502024025 59 353 2.6 3.5 0.00 0.00 0.00 39 1014.2
20260502023030 60 0 3.5 4.3 0.00 0.00 0.00 39 1014.2
20260502022033 60 328 3.5 5.2 0.00 0.00 0.00 39 1014.1
20260502021034 62 337 4.3 7.0 0.00 0.00 0.00 38 1014.0
20260502020034 63 321 4.3 7.0 0.00 0.00 0.00 38 1014.0
20260502015036 64 316 5.2 7.8 0.00 0.00 0.00 37 1013.8
20260502014017 65 315 4.3 7.8 0.00 0.00 0.00 36 1013.8
20260502013032 66 300 7.0 10.4 0.00 0.00 0.00 36 1013.8
20260502012018 66 308 6.1 8.7 0.00 0.00 0.00 36 1013.6
20260502011018 66 281 6.1 8.7 0.00 0.00 0.00 36 1013.6
20260502010033 67 324 5.2 8.7 0.00 0.00 0.00 36 1013.7
20260502005020 67 335 6.1 7.8 0.00 0.00 0.00 36 1013.6
20260502004020 67 328 7.0 10.4 0.00 0.00 0.00 36 1013.6
20260502003040 67 324 7.8 10.4 0.00 0.00 0.00 35 1013.6
20260502002023 68 321 8.7 11.3 0.00 0.00 0.00 35 1013.7
20260502001022 68 319 7.0 10.4 0.00 0.00 0.00 35 1013.7
20260502000058 68 317 5.2 9.6 0.00 0.00 0.00 35 1013.8
20260501235019 68 292 7.0 11.3 0.00 0.00 0.00 35 1013.7
20260501234018 68 315 8.7 9.6 0.00 0.00 0.00 35 1013.7
20260501233021 68 311 7.8 11.3 0.00 0.00 0.00 35 1013.7
20260501232020 69 345 8.7 12.2 0.00 0.00 0.00 35 1013.6
20260501231032 69 294 7.8 9.6 0.00 0.00 0.00 34 1013.7
20260501230018 70 337 7.8 13.0 0.00 0.00 0.00 33 1013.9
20260501225022 71 8.7 8.7 0.00 0.00 0.00 31 1013.9
20260501224106 70 12 6.1 10.4 0.00 0.00 0.00 32 1014.0
20260501223030 71 296 6.1 7.0 0.00 0.00 0.00 32 1014.2
20260501222017 71 348 7.8 11.3 0.00 0.00 0.00 31 1014.1
20260501221020 72 299 5.2 8.7 0.00 0.00 0.00 31 1014.2
20260501220025 71 306 6.1 9.6 0.00 0.00 0.00 32 1014.2
20260501215021 71 325 5.2 10.4 0.00 0.00 0.00 31 1014.3
20260501214022 74 327 3.5 6.1 0.00 0.00 0.00 30 1014.3
20260501213021 71 353 5.2 7.0 0.00 0.00 0.00 32 1014.5
20260501212017 71 254 6.1 8.7 0.00 0.00 0.00 31 1014.5
20260501211018 71 300 6.1 10.4 0.00 0.00 0.00 32 1014.6
20260501210019 72 320 5.2 8.7 0.00 0.00 0.00 31 1014.6
20260501205020 72 6 4.3 7.8 0.00 0.00 0.00 30 1014.7
20260501204019 74 299 5.2 8.7 0.00 0.00 0.00 30 1014.5
20260501203026 72 286 3.5 7.0 0.00 0.00 0.00 31 1014.6
20260501202020 71 303 6.1 8.7 0.00 0.00 0.00 31 1014.6
20260501201020 73 301 5.2 8.7 0.00 0.00 0.00 30 1014.8
20260501200017 72 294 3.5 6.1 0.00 0.00 0.00 31 1014.9
20260501195018 71 268 5.2 6.1 0.00 0.00 0.00 31 1014.7
20260501194021 72 344 6.1 7.8 0.00 0.00 0.00 31 1014.8
20260501193035 71 278 5.2 7.8 0.00 0.00 0.00 31 1015.0
20260501192020 73 203 2.6 4.3 0.00 0.00 0.00 29 1015.1
20260501191032 73 246 5.2 7.8 0.00 0.00 0.00 29 1015.2
20260501190025 71 227 3.5 5.2 0.00 0.00 0.00 30 1015.3
20260501185028 68 334 7.0 8.7 0.00 0.00 0.00 31 1015.4
20260501184044 71 45 6.1 7.8 0.00 0.00 0.00 29 1015.5
20260501183042 71 333 4.3 7.0 0.00 0.00 0.00 30 1015.6
20260501182018 71 340 4.3 7.0 0.00 0.00 0.00 32 1015.7
20260501181032 70 130 3.5 5.2 0.00 0.00 0.00 33 1015.8
20260501180034 72 52 6.1 9.6 0.00 0.00 0.00 33 1015.9
20260501175032 71 347 3.5 5.2 0.00 0.00 0.00 33 1015.9
20260501174017 69 264 5.2 6.1 0.00 0.00 0.00 33 1016.0
20260501173034 71 47 3.5 5.2 0.00 0.00 0.00 32 1016.0
20260501172033 69 303 2.6 4.3 0.00 0.00 0.00 33 1016.0
20260501171021 70 90 4.3 4.3 0.00 0.00 0.00 34 1016.0
20260501170021 68 268 3.5 4.3 0.00 0.00 0.00 34 1016.1
20260501165021 69 327 2.6 4.3 0.00 0.00 0.00 34 1016.0
20260501164025 69 353 3.5 5.2 0.00 0.00 0.00 35 1016.2
20260501163046 68 347 2.6 4.3 0.00 0.00 0.00 36 1015.9
20260501162025 67 329 3.5 5.2 0.00 0.00 0.00 37 1016.0
20260501161023 69 341 2.6 4.3 0.00 0.00 0.00 37 1016.1
20260501160044 68 313 2.6 3.5 0.00 0.00 0.00 37 1016.1
20260501155024 68 261 2.6 4.3 0.00 0.00 0.00 37 1015.8
20260501154024 69 209 2.6 3.5 0.00 0.00 0.00 38 1016.0
20260501153027 66 166 2.6 3.5 0.00 0.00 0.00 39 1015.9
20260501152051 65 203 1.7 2.6 0.00 0.00 0.00 39 1015.9
20260501151108 66 131 1.7 2.6 0.00 0.00 0.00 39 1015.9